This demonstration page uses our WeatherBlox Daily Observations layout. Learn more.

Left ArrowRight Arrow

Hourly Observations for November 4, 2018

Temp ( °F °C ) Dew Point ( °F °C ) Humidity (%) Winds ( mph kmh ) Pressure ( in mb ) Visibility ( mi km ) Precip ( " mm )
12:53 am 00:53 Clear 47 8.3 42 5.6 83 83 N 6 9 30.03 1017 10 16 0.00 0.00
1:53 am 01:53 Clear 45 7.2 42 5.6 90 90 NW 5 7 30.05 1018 10 16 0.00 0.00
1:53 am 01:53 Clear 46 7.8 43 6.1 89 89 W 6 9 30.06 1018 10 16 0.00 0.00
2:53 am 02:53 Clear 45 7.2 42 5.6 90 90 NW 7 11 30.06 1018 10 16 0.00 0.00
3:53 am 03:53 Clear 43 6.1 41 5 93 93 N 6 9 30.06 1018 10 16 0.00 0.00
4:53 am 04:53 Clear 41 5 40 4.4 96 96 NNW 6 9 30.06 1018 10 16 0.00 0.00
5:53 am 05:53 Clear 40 4.4 39 3.9 97 97 N 6 9 30.08 1019 10 16 0.00 0.00
6:53 am 06:53 Clear 41 5 39 3.9 93 93 N 5 7 30.11 1020 10 16 0.00 0.00
7:53 am 07:53 Sunny 42 5.6 40 4.4 92 92 N 5 7 30.13 1020 10 16 0.00 0.00
8:53 am 08:53 Sunny 48 8.9 43 6.1 83 83 NNE 7 11 30.15 1021 10 16 0.00 0.00
9:53 am 09:53 Sunny 55 12.8 41 5 59 59 NE 10 17 30.13 1020 10 16 0.00 0.00
10:53 am 10:53 Sunny 58 14.4 41 5 53 53 VRB 7 11 30.11 1020 10 16 0.00 0.00
11:53 am 11:53 Sunny 60 15.6 41 5 50 50 SE 14 22 30.08 1019 10 16 0.00 0.00
12:53 pm 12:53 Sunny 61 16.1 41 5 48 48 S 12 19 30.03 1017 10 16 0.00 0.00
1:53 pm 13:53 Sunny 63 17.2 42 5.6 47 47 VRB 7 11 29.98 1015 10 16 0.00 0.00
2:53 pm 14:53 Sunny 64 17.8 43 6.1 46 46 S 9 15 29.95 1014 10 16 0.00 0.00
3:53 pm 15:53 Sunny 64 17.8 44 6.7 48 48 S 12 19 29.93 1013 10 16 0.00 0.00
4:53 pm 16:53 Sunny 63 17.2 44 6.7 50 50 SSE 13 20 29.90 1013 10 16 0.00 0.00
5:53 pm 17:53 Sunny 59 15 45 7.2 60 60 SSE 8 13 29.90 1013 10 16 0.00 0.00
6:53 pm 18:53 Clear 54 12.2 46 7.8 75 75 SSE 10 17 29.88 1012 10 16 0.00 0.00
7:53 pm 19:53 Clear 54 12.2 46 7.8 75 75 SSE 9 15 29.87 1012 10 16 0.00 0.00
8:53 pm 20:53 Clear 55 12.8 46 7.8 72 72 SE 12 19 29.82 1010 10 16 0.00 0.00
9:53 pm 21:53 Clear 53 11.7 46 7.8 77 77 SSE 8 13 29.81 1010 10 16 0.00 0.00
10:53 pm 22:53 Clear 51 10.6 47 8.3 86 86 SSE 9 15 29.79 1009 10 16 0.00 0.00
11:53 pm 23:53 Clear 51 10.6 47 8.3 86 86 SSE 9 15 29.79 1009 10 16 0.00 0.00

Powered by AerisWeather